,,,PA_Meas_PMT16A,,PR_Meas_QMR101_102,,RH_Meas_QMH101,,SR_Meas_QMS101,,TA_Meas_QMH101,,GenWind,,GenWind,
date,time,status,PA,status,PR,status,RH,status,SR,status,TA,status,DirAvg,status,SpdAvg,
2009-08-04, 00:00:04,VALID,1000.68,VALID,0,VALID,63.5242,VALID,0,VALID,26.688,VALID,175,VALID,2.29766,
2009-08-04, 00:01:04,VALID,1000.65,VALID,0,VALID,63.3945,VALID,0,VALID,26.7251,VALID,178,VALID,2.69297,
2009-08-04, 00:02:04,VALID,1000.65,VALID,0,VALID,62.7613,VALID,0,VALID,26.7836,VALID,178,VALID,2.65859,
2009-08-04, 00:03:04,VALID,1000.62,VALID,0,VALID,62.5705,VALID,0,VALID,26.8833,VALID,174,VALID,2.72305,
2009-08-04, 00:04:04,VALID,1000.61,VALID,0,VALID,62.3264,VALID,0,VALID,26.9399,VALID,174,VALID,3.27656,
2009-08-04, 00:05:04,VALID,1000.62,VALID,0,VALID,62.3645,VALID,0,VALID,26.9594,VALID,168,VALID,2.88984,
2009-08-04, 00:06:04,VALID,1000.59,VALID,0,VALID,62.2119,VALID,0,VALID,27.0005,VALID,177,VALID,2.54414,
2009-08-04, 00:07:04,VALID,1000.61,VALID,0,VALID,61.6016,VALID,0,VALID,27.0571,VALID,178,VALID,2.90898,
2009-08-04, 00:08:04,VALID,1000.61,VALID,0,VALID,61.6397,VALID,0,VALID,27.1157,VALID,189,VALID,1.93086,
2009-08-04, 00:09:04,VALID,1000.65,VALID,0,VALID,61.6244,VALID,0,VALID,27.1373,VALID,207,VALID,2.70781,
2009-08-04, 00:10:04,VALID,1000.62,VALID,0,VALID,61.5863,VALID,0,VALID,27.1568,VALID,190,VALID,2.27656,
2009-08-04, 00:11:04,VALID,1000.63,VALID,0,VALID,61.7084,VALID,0,VALID,27.1352,VALID,208,VALID,1.12227,
2009-08-04, 00:12:04,VALID,1000.6,VALID,0,VALID,61.7389,VALID,0,VALID,27.0766,VALID,201,VALID,1.26602,
2009-08-04, 00:13:04,VALID,1000.62,VALID,0,VALID,62.0822,VALID,0,VALID,27.0571,VALID,188,VALID,1.58086,
2009-08-04, 00:14:04,VALID,1000.59,VALID,0,VALID,61.6931,VALID,0,VALID,27.0571,VALID,184,VALID,2.61953,
2009-08-04, 00:15:04,VALID,1000.61,VALID,0,VALID,61.6702,VALID,0,VALID,27.0961,VALID,174,VALID,2.53828,
2009-08-04, 00:16:04,VALID,1000.62,VALID,0,VALID,61.922,VALID,0,VALID,27.0787,VALID,176,VALID,2.07461,
2009-08-04, 00:17:04,VALID,1000.58,VALID,0,VALID,61.9754,VALID,0,VALID,27.018,VALID,175,VALID,2.05625,
2009-08-04, 00:18:04,VALID,1000.6,VALID,0,VALID,62.128,VALID,0,VALID,27.018,VALID,177,VALID,2.88477,
2009-08-04, 00:19:04,VALID,1000.57,VALID,0,VALID,62.3493,VALID,0,VALID,26.9985,VALID,177,VALID,2.33477,
2009-08-04, 00:20:04,VALID,1000.56,VALID,0,VALID,62.0517,VALID,0,VALID,26.9985,VALID,176,VALID,3.81953,
2009-08-04, 00:21:04,VALID,1000.55,VALID,0,VALID,62.067,VALID,0,VALID,27.0591,VALID,170,VALID,3.59727,
2009-08-04, 00:22:04,VALID,1000.56,VALID,0,VALID,62.0746,VALID,0,VALID,27.0591,VALID,167,VALID,2.78203,
2009-08-04, 00:23:04,VALID,1000.53,VALID,0,VALID,62.3187,VALID,0,VALID,27.0005,VALID,172,VALID,2.9457,
2009-08-04, 00:24:04,VALID,1000.51,VALID,0,VALID,62.5324,VALID,0,VALID,26.9399,VALID,159,VALID,3.93086,
2009-08-04, 00:25:04,VALID,1000.5,VALID,0,VALID,62.9444,VALID,0,VALID,26.9224,VALID,174,VALID,2.60781,
2009-08-04, 00:26:04,VALID,1000.52,VALID,0,VALID,63.0207,VALID,0,VALID,26.8227,VALID,162,VALID,3.21602,
2009-08-04, 00:27:04,VALID,1000.53,VALID,0,VALID,63.5242,VALID,0,VALID,26.7836,VALID,179,VALID,2.43906,
2009-08-04, 00:28:04,VALID,1000.5,VALID,0,VALID,63.5242,VALID,0,VALID,26.7251,VALID,176,VALID,2.40117,
2009-08-04, 00:29:04,VALID,1000.48,VALID,0,VALID,63.6768,VALID,0,VALID,26.7055,VALID,172,VALID,2.49453,
2009-08-04, 00:30:04,VALID,1000.52,VALID,0,VALID,63.4403,VALID,0,VALID,26.688,VALID,185,VALID,2.61406,
2009-08-04, 00:31:04,VALID,1000.49,VALID,0,VALID,63.2267,VALID,0,VALID,26.7466,VALID,182,VALID,2.37148,
2009-08-04, 00:32:04,VALID,1000.48,VALID,0,VALID,63.1885,VALID,0,VALID,26.7641,VALID,174,VALID,2.19062,
2009-08-04, 00:33:04,VALID,1000.49,VALID,0,VALID,63.2877,VALID,0,VALID,26.7857,VALID,168,VALID,2.23359,
2009-08-04, 00:34:04,VALID,1000.5,VALID,0,VALID,63.1046,VALID,0,VALID,26.7251,VALID,170,VALID,2.58398,
2009-08-04, 00:35:04,VALID,1000.5,VALID,0,VALID,62.7307,VALID,0.112286,VALID,26.7836,VALID,175,VALID,3.30234,
2009-08-04, 00:36:04,VALID,1000.5,VALID,0,VALID,62.6392,VALID,0,VALID,26.8422,VALID,179,VALID,2.84023,
2009-08-04, 00:37:04,VALID,1000.45,VALID,0,VALID,62.3416,VALID,0,VALID,26.8618,VALID,176,VALID,3.22969,
2009-08-04, 00:38:04,VALID,1000.4,VALID,0,VALID,62.5324,VALID,0,VALID,26.8618,VALID,184,VALID,3.23203,
2009-08-04, 00:39:04,VALID,1000.41,VALID,0,VALID,62.4637,VALID,0,VALID,26.8618,VALID,175,VALID,3.03047,
2009-08-04, 00:40:04,VALID,1000.42,VALID,0,VALID,62.6087,VALID,0,VALID,26.8422,VALID,177,VALID,2.33437,
2009-08-04, 00:41:04,VALID,1000.43,VALID,0,VALID,62.7689,VALID,0,VALID,26.8032,VALID,184,VALID,2.33164,
2009-08-04, 00:42:04,VALID,1000.45,VALID,0,VALID,62.6697,VALID,0.112286,VALID,26.7836,VALID,188,VALID,2.21602,
2009-08-04, 00:43:04,VALID,1000.41,VALID,0,VALID,62.8681,VALID,0,VALID,26.7836,VALID,189,VALID,1.63398,
2009-08-04, 00:44:04,VALID,1000.41,VALID,0,VALID,62.4561,VALID,0,VALID,26.7836,VALID,182,VALID,2.61562,
2009-08-04, 00:45:04,VALID,1000.39,VALID,0,VALID,62.067,VALID,0,VALID,26.8618,VALID,185,VALID,2.80977,
2009-08-04, 00:46:04,VALID,1000.4,VALID,0,VALID,61.983,VALID,0,VALID,26.9399,VALID,190,VALID,2.75703,
2009-08-04, 00:47:04,VALID,1000.38,VALID,0,VALID,61.716,VALID,0,VALID,26.9399,VALID,194,VALID,2.37148,
2009-08-04, 00:48:04,VALID,1000.38,VALID,0,VALID,61.6397,VALID,0,VALID,26.9789,VALID,193,VALID,2.65234,
2009-08-04, 00:49:04,VALID,1000.36,VALID,0,VALID,61.7007,VALID,0,VALID,26.9594,VALID,187,VALID,1.90156,
2009-08-04, 00:50:04,VALID,1000.33,VALID,0,VALID,61.3498,VALID,0,VALID,26.9789,VALID,183,VALID,2.66172,
2009-08-04, 00:51:04,VALID,1000.29,VALID,0,VALID,61.5024,VALID,0,VALID,27.018,VALID,195,VALID,1.51523,
2009-08-04, 00:52:04,VALID,1000.3,VALID,0,VALID,61.5787,VALID,0,VALID,26.9985,VALID,189,VALID,2.22031,
2009-08-04, 00:53:04,VALID,1000.29,VALID,0,VALID,61.5253,VALID,0,VALID,26.9985,VALID,187,VALID,2.8125,
2009-08-04, 00:54:04,VALID,1000.26,VALID,0,VALID,61.3956,VALID,0,VALID,26.9789,VALID,189,VALID,1.91055,
2009-08-04, 00:55:04,VALID,1000.29,VALID,0,VALID,61.4642,VALID,0,VALID,27.0375,VALID,176,VALID,3.13477,
2009-08-04, 00:56:04,VALID,1000.29,VALID,0,VALID,61.51,VALID,0,VALID,26.9985,VALID,191,VALID,1.85625,
2009-08-04, 00:57:04,VALID,1000.3,VALID,0,VALID,61.8533,VALID,0,VALID,26.9399,VALID,182,VALID,2.41719,
2009-08-04, 00:58:04,VALID,1000.26,VALID,0,VALID,61.9907,VALID,0,VALID,26.9008,VALID,181,VALID,2.54961,
2009-08-04, 00:59:04,VALID,1000.25,VALID,0,VALID,61.9601,VALID,0,VALID,26.8813,VALID,172,VALID,3.1582,
2009-08-04, 01:00:04,VALID,1000.24,VALID,0,VALID,62.4027,VALID,0,VALID,26.8422,VALID,173,VALID,2.39961,
2009-08-04, 01:01:04,VALID,1000.26,VALID,0,VALID,62.7841,VALID,0,VALID,26.7641,VALID,172,VALID,2.62734,
2009-08-04, 01:02:04,VALID,1000.26,VALID,0,VALID,62.9978,VALID,0,VALID,26.7055,VALID,173,VALID,2.53008,
2009-08-04, 01:03:04,VALID,1000.23,VALID,0,VALID,62.6315,VALID,0.112286,VALID,26.7251,VALID,183,VALID,3.40469,
2009-08-04, 01:04:04,VALID,1000.2,VALID,0,VALID,62.5476,VALID,0,VALID,26.7641,VALID,176,VALID,2.0375,
2009-08-04, 01:05:04,VALID,1000.21,VALID,0,VALID,62.891,VALID,0,VALID,26.7251,VALID,179,VALID,1.94805,
2009-08-04, 01:06:04,VALID,1000.18,VALID,0,VALID,63.2572,VALID,0,VALID,26.6469,VALID,182,VALID,1.8918,
2009-08-04, 01:07:04,VALID,1000.18,VALID,0,VALID,63.303,VALID,0,VALID,26.6079,VALID,181,VALID,2.37109,
2009-08-04, 01:08:04,VALID,1000.2,VALID,0,VALID,63.2801,VALID,0,VALID,26.6274,VALID,188,VALID,1.64727,
2009-08-04, 01:09:04,VALID,1000.21,VALID,0,VALID,63.3716,VALID,0,VALID,26.649,VALID,176,VALID,2.19258,
2009-08-04, 01:10:04,VALID,1000.22,VALID,0,VALID,63.303,VALID,0,VALID,26.6685,VALID,176,VALID,1.86523,
2009-08-04, 01:11:04,VALID,1000.22,VALID,0,VALID,63.2801,VALID,0,VALID,26.649,VALID,182,VALID,1.99063,
2009-08-04, 01:12:04,VALID,1000.26,VALID,0,VALID,63.3716,VALID,0,VALID,26.6274,VALID,171,VALID,1.76484,
2009-08-04, 01:13:04,VALID,1000.2,VALID,0,VALID,63.5013,VALID,0,VALID,26.5884,VALID,176,VALID,1.32227,
2009-08-04, 01:14:04,VALID,1000.2,VALID,0,VALID,63.6768,VALID,0,VALID,26.5473,VALID,177,VALID,2.61875,
2009-08-04, 01:15:04,VALID,1000.23,VALID,0,VALID,63.631,VALID,0,VALID,26.6079,VALID,187,VALID,1.89766,
2009-08-04, 01:16:04,VALID,1000.22,VALID,0,VALID,63.5624,VALID,0,VALID,26.6079,VALID,183,VALID,2.44062,
2009-08-04, 01:17:04,VALID,1000.19,VALID,0,VALID,63.6539,VALID,0,VALID,26.6079,VALID,180,VALID,2.05938,
2009-08-04, 01:18:04,VALID,1000.16,VALID,0,VALID,63.7531,VALID,0,VALID,26.6079,VALID,190,VALID,1.77891,
2009-08-04, 01:19:04,VALID,1000.17,VALID,0,VALID,63.8141,VALID,0,VALID,26.5884,VALID,184,VALID,2.26016,
2009-08-04, 01:20:04,VALID,1000.18,VALID,0,VALID,63.7607,VALID,0,VALID,26.6079,VALID,205,VALID,2.08633,
2009-08-04, 01:21:04,VALID,1000.17,VALID,0,VALID,63.715,VALID,0,VALID,26.5884,VALID,180,VALID,2.00781,
2009-08-04, 01:22:04,VALID,1000.19,VALID,0,VALID,64.0812,VALID,0,VALID,26.5688,VALID,169,VALID,1.59805,
2009-08-04, 01:23:04,VALID,1000.19,VALID,0,VALID,64.2948,VALID,0,VALID,26.5102,VALID,175,VALID,1.57891,
2009-08-04, 01:24:04,VALID,1000.18,VALID,0,VALID,64.5237,VALID,0,VALID,26.4517,VALID,183,VALID,1.58828,
2009-08-04, 01:25:04,VALID,1000.2,VALID,0,VALID,64.6458,VALID,0,VALID,26.4321,VALID,184,VALID,1.17422,
2009-08-04, 01:26:04,VALID,1000.19,VALID,0,VALID,64.6992,VALID,0,VALID,26.3931,VALID,188,VALID,1.41094,
2009-08-04, 01:27:04,VALID,1000.21,VALID,0,VALID,64.7221,VALID,0,VALID,26.4341,VALID,191,VALID,1.43906,
2009-08-04, 01:28:04,VALID,1000.19,VALID,0,VALID,64.6076,VALID,0,VALID,26.3931,VALID,188,VALID,1.34961,
2009-08-04, 01:29:04,VALID,1000.17,VALID,0,VALID,64.2414,VALID,0,VALID,26.4321,VALID,193,VALID,2.34883,
2009-08-04, 01:30:04,VALID,1000.22,VALID,0,VALID,64.0278,VALID,0,VALID,26.5318,VALID,191,VALID,2.21953,
2009-08-04, 01:31:04,VALID,1000.21,VALID,0,VALID,63.4937,VALID,0,VALID,26.6294,VALID,201,VALID,1.61406,
2009-08-04, 01:32:04,VALID,1000.17,VALID,0,VALID,63.4479,VALID,0,VALID,26.6665,VALID,176,VALID,2.23281,
2009-08-04, 01:33:04,VALID,1000.13,VALID,0,VALID,63.0283,VALID,0,VALID,26.7271,VALID,189,VALID,2.42422,
2009-08-04, 01:34:04,VALID,1000.13,VALID,0,VALID,63.303,VALID,0,VALID,26.7446,VALID,190,VALID,1.74297,
2009-08-04, 01:35:04,VALID,1000.07,VALID,0,VALID,62.8757,VALID,0,VALID,26.7857,VALID,186,VALID,2.19453,
2009-08-04, 01:36:04,VALID,1000.07,VALID,0,VALID,62.6544,VALID,0,VALID,26.8032,VALID,199,VALID,1.86641,
2009-08-04, 01:37:04,VALID,1000.05,VALID,0,VALID,62.5934,VALID,0,VALID,26.8227,VALID,226,VALID,1.40469,
2009-08-04, 01:38:04,VALID,1000.02,VALID,0,VALID,62.807,VALID,0,VALID,26.8638,VALID,211,VALID,1.41719,
2009-08-04, 01:39:04,VALID,999.999,VALID,0,VALID,62.9978,VALID,0,VALID,26.7857,VALID,195,VALID,1.85078,
2009-08-04, 01:40:04,VALID,1000.06,VALID,0,VALID,62.9596,VALID,0,VALID,26.7641,VALID,187,VALID,3.08125,
2009-08-04, 01:41:04,VALID,1000.03,VALID,0,VALID,63.0588,VALID,0,VALID,26.8032,VALID,172,VALID,2.38008,
2009-08-04, 01:42:04,VALID,1000.07,VALID,0,VALID,62.952,VALID,0,VALID,26.8422,VALID,170,VALID,2.44805,
2009-08-04, 01:43:04,VALID,1000.01,VALID,0,VALID,63.6463,VALID,0,VALID,26.7271,VALID,177,VALID,1.66484,
2009-08-04, 01:44:04,VALID,1000.04,VALID,0,VALID,64.2872,VALID,0,VALID,26.5688,VALID,179,VALID,1.89063,
2009-08-04, 01:45:04,VALID,1000,VALID,0,VALID,64.8213,VALID,0,VALID,26.4341,VALID,164,VALID,2.08984,
2009-08-04, 01:46:04,VALID,1000.01,VALID,0,VALID,65.5461,VALID,0,VALID,26.2369,VALID,157,VALID,2.15547,
2009-08-04, 01:47:04,VALID,999.948,VALID,0,VALID,66.0954,VALID,0,VALID,26.1392,VALID,164,VALID,1.63672,
2009-08-04, 01:48:04,VALID,999.963,VALID,0,VALID,66.5761,VALID,0,VALID,26.0416,VALID,164,VALID,1.5,
2009-08-04, 01:49:04,VALID,999.989,VALID,0,VALID,66.9575,VALID,0,VALID,25.9655,VALID,162,VALID,2.07461,
2009-08-04, 01:50:04,VALID,1000.02,VALID,0,VALID,66.8202,VALID,0,VALID,25.9264,VALID,166,VALID,2.38789,
2009-08-04, 01:51:04,VALID,999.969,VALID,0,VALID,66.721,VALID,0,VALID,26.0026,VALID,154,VALID,1.64727,
2009-08-04, 01:52:04,VALID,999.983,VALID,0,VALID,66.9347,VALID,0,VALID,25.944,VALID,143,VALID,1.80391,
2009-08-04, 01:53:04,VALID,999.937,VALID,0,VALID,67.1025,VALID,0,VALID,25.8854,VALID,166,VALID,2.21719,
2009-08-04, 01:54:04,VALID,999.916,VALID,0,VALID,66.8965,VALID,0,VALID,25.9069,VALID,164,VALID,2.07773,
2009-08-04, 01:55:04,VALID,999.841,VALID,0,VALID,66.9499,VALID,0,VALID,25.9069,VALID,158,VALID,1.87188,
2009-08-04, 01:56:04,VALID,999.835,VALID,0,VALID,67.0796,VALID,0,VALID,25.8854,VALID,176,VALID,1.96992,
2009-08-04, 01:57:04,VALID,999.834,VALID,0,VALID,66.2404,VALID,0,VALID,26.0631,VALID,175,VALID,1.81055,
2009-08-04, 01:58:04,VALID,999.819,VALID,0,VALID,65.0425,VALID,0,VALID,26.315,VALID,204,VALID,3.14492,
2009-08-04, 01:59:04,VALID,999.827,VALID,0,VALID,64.5237,VALID,0,VALID,26.4927,VALID,184,VALID,2.8293,
2009-08-04, 02:00:04,VALID,999.825,VALID,0,VALID,64.2338,VALID,0,VALID,26.5102,VALID,183,VALID,1.76328,
2009-08-04, 02:01:04,VALID,999.872,VALID,0,VALID,64.249,VALID,0,VALID,26.5513,VALID,176,VALID,2.05391,
2009-08-04, 02:02:04,VALID,999.888,VALID,0,VALID,64.6687,VALID,0,VALID,26.5298,VALID,171,VALID,1.75352,
2009-08-04, 02:03:04,VALID,999.892,VALID,0,VALID,64.9128,VALID,0,VALID,26.4517,VALID,178,VALID,1.86211,
2009-08-04, 02:04:04,VALID,999.878,VALID,0,VALID,64.4016,VALID,0,VALID,26.4517,VALID,188,VALID,2.8793,
2009-08-04, 02:05:04,VALID,999.832,VALID,0,VALID,64.1193,VALID,0,VALID,26.5708,VALID,178,VALID,3.24766,
2009-08-04, 02:06:04,VALID,999.787,VALID,0,VALID,63.6997,VALID,0,VALID,26.5884,VALID,182,VALID,2.70117,
2009-08-04, 02:07:04,VALID,999.785,VALID,0,VALID,63.4708,VALID,0,VALID,26.6685,VALID,190,VALID,2.14961,
2009-08-04, 02:08:04,VALID,999.744,VALID,0,VALID,63.2724,VALID,0,VALID,26.7251,VALID,173,VALID,2.20039,
2009-08-04, 02:09:04,VALID,999.691,VALID,0,VALID,63.4784,VALID,0.112286,VALID,26.686,VALID,173,VALID,2.92969,
2009-08-04, 02:10:04,VALID,999.693,VALID,0,VALID,63.3945,VALID,0.112286,VALID,26.7055,VALID,164,VALID,3.2707,
2009-08-04, 02:11:04,VALID,999.679,VALID,0,VALID,63.2495,VALID,0,VALID,26.686,VALID,181,VALID,3.37383,
2009-08-04, 02:12:04,VALID,999.637,VALID,0,VALID,63.0893,VALID,0,VALID,26.688,VALID,184,VALID,3.61523,
2009-08-04, 02:13:04,VALID,999.599,VALID,0,VALID,62.1051,VALID,0,VALID,26.7836,VALID,176,VALID,3.79844,
2009-08-04, 02:14:04,VALID,999.581,VALID,0,VALID,61.4184,VALID,0,VALID,26.9008,VALID,185,VALID,5.01836,
2009-08-04, 02:15:04,VALID,999.565,VALID,0,VALID,61.1285,VALID,0,VALID,26.9985,VALID,182,VALID,3.93398,
2009-08-04, 02:16:04,VALID,999.582,VALID,0,VALID,61.1896,VALID,0,VALID,27.0375,VALID,181,VALID,3.74961,
2009-08-04, 02:17:04,VALID,999.582,VALID,0,VALID,61.1361,VALID,0,VALID,27.018,VALID,188,VALID,3.01992,
2009-08-04, 02:18:04,VALID,999.578,VALID,0,VALID,61.0598,VALID,0,VALID,27.0375,VALID,188,VALID,2.42891,
2009-08-04, 02:19:04,VALID,999.553,VALID,0,VALID,60.9225,VALID,0,VALID,27.0375,VALID,184,VALID,3.43672,
2009-08-04, 02:20:04,VALID,999.547,VALID,0,VALID,60.9607,VALID,0,VALID,27.0571,VALID,185,VALID,2.61484,
2009-08-04, 02:21:04,VALID,999.494,VALID,0,VALID,60.9912,VALID,0,VALID,27.0396,VALID,171,VALID,3.19375,
2009-08-04, 02:22:04,VALID,999.544,VALID,0,VALID,61.6702,VALID,0,VALID,26.9594,VALID,159,VALID,2.48164,
2009-08-04, 02:23:04,VALID,999.519,VALID,0,VALID,61.7084,VALID,0,VALID,26.8618,VALID,176,VALID,3.10313,
2009-08-04, 02:24:04,VALID,999.502,VALID,0,VALID,61.4413,VALID,0,VALID,26.8422,VALID,186,VALID,3.29414,
2009-08-04, 02:25:04,VALID,999.519,VALID,0,VALID,61.4261,VALID,0,VALID,26.9204,VALID,169,VALID,2.89023,
2009-08-04, 02:26:04,VALID,999.485,VALID,0,VALID,61.6244,VALID,0,VALID,26.9204,VALID,164,VALID,2.42109,
2009-08-04, 02:27:04,VALID,999.444,VALID,0,VALID,61.4795,VALID,0,VALID,26.9008,VALID,179,VALID,3.06328,
2009-08-04, 02:28:04,VALID,999.41,VALID,0,VALID,61.098,VALID,0,VALID,26.9399,VALID,171,VALID,3.91563,
2009-08-04, 02:29:04,VALID,999.402,VALID,0,VALID,60.5944,VALID,0,VALID,27.0766,VALID,181,VALID,4.49336,
2009-08-04, 02:30:04,VALID,999.378,VALID,0,VALID,60.9836,VALID,0,VALID,27.0766,VALID,171,VALID,3.1957,
2009-08-04, 02:31:04,VALID,999.373,VALID,0,VALID,61.0598,VALID,0,VALID,27.0005,VALID,166,VALID,3,
2009-08-04, 02:32:04,VALID,999.372,VALID,0,VALID,61.2735,VALID,0,VALID,26.981,VALID,175,VALID,3.01445,
2009-08-04, 02:33:04,VALID,999.347,VALID,0,VALID,61.0064,VALID,0,VALID,26.9985,VALID,175,VALID,2.89766,
2009-08-04, 02:34:04,VALID,999.346,VALID,0,VALID,60.9225,VALID,0,VALID,27.0396,VALID,176,VALID,2.3832,
2009-08-04, 02:35:04,VALID,999.355,VALID,0,VALID,61.1285,VALID,0,VALID,27.018,VALID,201,VALID,2.35859,
2009-08-04, 02:36:04,VALID,999.363,VALID,0,VALID,61.1972,VALID,0,VALID,27.0375,VALID,169,VALID,2.50742,
2009-08-04, 02:37:04,VALID,999.354,VALID,0,VALID,61.159,VALID,0,VALID,27.018,VALID,171,VALID,2.42305,
2009-08-04, 02:38:04,VALID,999.323,VALID,0,VALID,60.6173,VALID,0,VALID,27.0591,VALID,170,VALID,3.17344,
2009-08-04, 02:39:04,VALID,999.291,VALID,0,VALID,60.1977,VALID,0,VALID,27.1352,VALID,175,VALID,2.95977,
2009-08-04, 02:40:04,VALID,999.291,VALID,0,VALID,60.0299,VALID,0,VALID,27.2329,VALID,173,VALID,3.21641,
2009-08-04, 02:41:04,VALID,999.241,VALID,0,VALID,59.3966,VALID,0,VALID,27.3305,VALID,179,VALID,2.9668,
2009-08-04, 02:42:04,VALID,999.219,VALID,0,VALID,59.4881,VALID,0,VALID,27.3891,VALID,183,VALID,3.59766,
2009-08-04, 02:43:04,VALID,999.204,VALID,0,VALID,59.2821,VALID,0,VALID,27.4086,VALID,176,VALID,5.125,
2009-08-04, 02:44:04,VALID,999.179,VALID,0,VALID,59.4271,VALID,0,VALID,27.3696,VALID,172,VALID,4.4668,
2009-08-04, 02:45:04,VALID,999.184,VALID,0,VALID,59.5034,VALID,0,VALID,27.3696,VALID,181,VALID,3.2375,
2009-08-04, 02:46:04,VALID,999.206,VALID,0,VALID,59.6102,VALID,0,VALID,27.3696,VALID,173,VALID,3.65586,
2009-08-04, 02:47:04,VALID,999.187,VALID,0,VALID,59.7781,VALID,0,VALID,27.3696,VALID,171,VALID,3.02187,
2009-08-04, 02:48:04,VALID,999.15,VALID,0,VALID,59.9764,VALID,0,VALID,27.35,VALID,173,VALID,2.36641,
2009-08-04, 02:49:04,VALID,999.147,VALID,0,VALID,60.1977,VALID,0,VALID,27.311,VALID,181,VALID,3.70664,
2009-08-04, 02:50:04,VALID,999.167,VALID,0,VALID,60.1367,VALID,0,VALID,27.2894,VALID,154,VALID,3.32539,
2009-08-04, 02:51:04,VALID,999.196,VALID,0,VALID,60.2969,VALID,0,VALID,27.2719,VALID,164,VALID,2.67344,
2009-08-04, 02:52:04,VALID,999.177,VALID,0,VALID,61.7999,VALID,0,VALID,27.1743,VALID,99,VALID,1.39961,
2009-08-04, 02:53:04,VALID,999.175,VALID,0,VALID,63.1961,VALID,0,VALID,26.9419,VALID,90,VALID,0.844141,
2009-08-04, 02:54:04,VALID,999.173,VALID,0,VALID,63.7531,VALID,0,VALID,26.686,VALID,95,VALID,1.03867,
2009-08-04, 02:55:04,VALID,999.221,VALID,0,VALID,64.8823,VALID,0,VALID,26.4321,VALID,100,VALID,0.619141,
2009-08-04, 02:56:04,VALID,999.171,VALID,0,VALID,66.3319,VALID,0,VALID,26.2173,VALID,54,VALID,1.12148,
2009-08-04, 02:57:04,VALID,999.154,VALID,0,VALID,67.6518,VALID,0,VALID,25.946,VALID,51,VALID,1.2918,
2009-08-04, 02:58:04,VALID,999.148,VALID,0,VALID,67.9952,VALID,0,VALID,25.6902,VALID,66,VALID,1.01133,
2009-08-04, 02:59:04,VALID,999.143,VALID,0,VALID,68.7429,VALID,0,VALID,25.5535,VALID,81,VALID,1.05352,
2009-08-04, 03:00:04,VALID,999.142,VALID,0,VALID,70.223,VALID,0,VALID,25.4364,VALID,63,VALID,0.844531,
2009-08-04, 03:01:04,VALID,999.096,VALID,0,VALID,70.7724,VALID,0,VALID,25.2997,VALID,55,VALID,0.779688,
2009-08-04, 03:02:04,VALID,999.074,VALID,0,VALID,72.3059,VALID,0,VALID,25.1631,VALID,53,VALID,0.466406,
2009-08-04, 03:03:04,VALID,999.063,VALID,0,VALID,73.2444,VALID,0,VALID,24.9112,VALID,357,VALID,0.741406,
2009-08-04, 03:04:04,VALID,999.06,VALID,0,VALID,74.0302,VALID,0,VALID,24.677,VALID,335,VALID,0.9875,
2009-08-04, 03:05:04,VALID,999.046,VALID,0,VALID,73.9692,VALID,0,VALID,24.4604,VALID,293,VALID,0.757422,
2009-08-04, 03:06:04,VALID,999.058,VALID,0,VALID,73.6869,VALID,0,VALID,24.4818,VALID,293,VALID,0.698438,
2009-08-04, 03:07:04,VALID,999.049,VALID,0,VALID,72.3822,VALID,0,VALID,24.558,VALID,286,VALID,0.607813,
2009-08-04, 03:08:04,VALID,999.018,VALID,0,VALID,71.6498,VALID,0,VALID,24.8313,VALID,223,VALID,0.669531,
2009-08-04, 03:09:04,VALID,999.017,VALID,0,VALID,70.3146,VALID,0,VALID,25.1026,VALID,194,VALID,0.734766,
2009-08-04, 03:10:04,VALID,999.04,VALID,0,VALID,69.193,VALID,0,VALID,25.2802,VALID,184,VALID,1.02969,
2009-08-04, 03:11:04,VALID,999.014,VALID,0,VALID,67.0415,VALID,0,VALID,25.6336,VALID,181,VALID,2.14922,
2009-08-04, 03:12:04,VALID,998.994,VALID,0,VALID,64.8594,VALID,0,VALID,26.1412,VALID,173,VALID,3.33594,
2009-08-04, 03:13:04,VALID,998.942,VALID,0,VALID,62.9673,VALID,0,VALID,26.6294,VALID,178,VALID,2.95898,
2009-08-04, 03:14:04,VALID,998.964,VALID,0,VALID,62.1051,VALID,0,VALID,26.8813,VALID,184,VALID,2.86445,
2009-08-04, 03:15:04,VALID,998.936,VALID,0,VALID,61.5558,VALID,0,VALID,27.0787,VALID,161,VALID,4.10352,
2009-08-04, 03:16:04,VALID,998.925,VALID,0,VALID,61.1896,VALID,0,VALID,27.1568,VALID,171,VALID,3.08867,
2009-08-04, 03:17:04,VALID,998.938,VALID,0,VALID,61.2964,VALID,0,VALID,27.1959,VALID,169,VALID,3.43047,
2009-08-04, 03:18:04,VALID,998.947,VALID,0,VALID,61.304,VALID,0,VALID,27.1763,VALID,171,VALID,3.83086,
2009-08-04, 03:19:04,VALID,998.908,VALID,0,VALID,61.1133,VALID,0,VALID,27.2349,VALID,165,VALID,3.40156,
2009-08-04, 03:20:04,VALID,998.888,VALID,0,VALID,60.5639,VALID,0,VALID,27.2935,VALID,169,VALID,4.36641,
2009-08-04, 03:21:04,VALID,998.932,VALID,0,VALID,60.6631,VALID,0,VALID,27.4107,VALID,178,VALID,3.71758,
2009-08-04, 03:22:04,VALID,998.94,VALID,0,VALID,60.3808,VALID,0,VALID,27.3891,VALID,172,VALID,3.19453,
2009-08-04, 03:23:04,VALID,998.913,VALID,0,VALID,60.5029,VALID,0,VALID,27.3696,VALID,179,VALID,2.5832,
2009-08-04, 03:24:04,VALID,998.934,VALID,0,VALID,60.9454,VALID,0,VALID,27.35,VALID,170,VALID,2.06797,
2009-08-04, 03:25:04,VALID,998.963,VALID,0,VALID,60.5029,VALID,0,VALID,27.3717,VALID,180,VALID,4.43555,
2009-08-04, 03:26:04,VALID,998.975,VALID,0,VALID,60.7547,VALID,0,VALID,27.4498,VALID,181,VALID,3.72461,
2009-08-04, 03:27:04,VALID,998.988,VALID,0,VALID,60.5105,VALID,0,VALID,27.4477,VALID,177,VALID,2.92656,
2009-08-04, 03:28:04,VALID,998.992,VALID,0,VALID,60.7241,VALID,0,VALID,27.4498,VALID,180,VALID,2.97031,
2009-08-04, 03:29:04,VALID,998.975,VALID,0,VALID,61.2048,VALID,0,VALID,27.4086,VALID,182,VALID,2.88867,
2009-08-04, 03:30:04,VALID,998.95,VALID,0,VALID,61.4032,VALID,0,VALID,27.3521,VALID,178,VALID,2.6957,
2009-08-04, 03:31:04,VALID,998.948,VALID,0,VALID,61.51,VALID,0,VALID,27.3305,VALID,159,VALID,2.90742,
2009-08-04, 03:32:04,VALID,998.938,VALID,0,VALID,61.3345,VALID,0,VALID,27.2915,VALID,175,VALID,2.56445,
2009-08-04, 03:33:04,VALID,998.913,VALID,0,VALID,61.1438,VALID,0,VALID,27.2935,VALID,179,VALID,3.8832,
2009-08-04, 03:34:04,VALID,998.919,VALID,0,VALID,61.0217,VALID,0,VALID,27.3131,VALID,171,VALID,3.54375,
2009-08-04, 03:35:04,VALID,998.946,VALID,0,VALID,61.0751,VALID,0,VALID,27.3521,VALID,166,VALID,2.52109,
2009-08-04, 03:36:04,VALID,998.941,VALID,0,VALID,61.0141,VALID,0,VALID,27.3131,VALID,174,VALID,3.40781,
2009-08-04, 03:37:04,VALID,998.957,VALID,0,VALID,60.7089,VALID,0,VALID,27.274,VALID,172,VALID,2.53008,
2009-08-04, 03:38:04,VALID,998.975,VALID,0,VALID,61.1361,VALID,0,VALID,27.2935,VALID,174,VALID,3.02813,
2009-08-04, 03:39:04,VALID,998.938,VALID,0,VALID,61.0827,VALID,0,VALID,27.2915,VALID,189,VALID,2.19062,
2009-08-04, 03:40:04,VALID,998.972,VALID,0,VALID,60.9454,VALID,0,VALID,27.3521,VALID,162,VALID,3.0168,
2009-08-04, 03:41:04,VALID,998.987,VALID,0,VALID,60.4571,VALID,0,VALID,27.3521,VALID,177,VALID,2.87969,
2009-08-04, 03:42:04,VALID,998.973,VALID,0,VALID,60.3884,VALID,0,VALID,27.3912,VALID,181,VALID,2.97344,
2009-08-04, 03:43:04,VALID,998.934,VALID,0,VALID,59.8544,VALID,0,VALID,27.4498,VALID,175,VALID,4.39141,
2009-08-04, 03:44:04,VALID,998.928,VALID,0,VALID,60.0756,VALID,0,VALID,27.4889,VALID,175,VALID,2.85859,
2009-08-04, 03:45:04,VALID,998.886,VALID,0,VALID,60.5487,VALID,0,VALID,27.4282,VALID,167,VALID,2.33633,
2009-08-04, 03:46:04,VALID,998.866,VALID,0,VALID,60.0299,VALID,0,VALID,27.4107,VALID,189,VALID,3.25625,